GW2134 Weather Reports


time (UTC)temp
F
wind
direction
speed
knots
gust
knots
rain 1hr
in
rain 24hr
in
rain mn
in
humidity
%
barometer
mb
20260506073058 53 31 0.0 4.3 0.07 0.98 0.75 93 1012.2
20260506071556 53 0 0.0 2.6 0.07 0.97 0.74 93 1012.3
20260506070116 52 0 0.0 1.7 0.06 0.96 0.74 93 1012.4
20260506061603 52 0 0.0 2.6 0.05 0.92 0.67 92 1012.4
20260506050110 52 18 0.0 3.5 0.13 1.01 0.60 92 1012.9
20260506044559 51 347 0.0 4.3 0.15 1.02 0.58 92 1012.9
20260506043053 51 355 0.9 3.5 0.17 0.98 0.54 92 1012.8
20260506041556 51 333 1.7 3.5 0.18 0.96 0.51 92 1012.9
20260506040059 52 0 0.0 1.7 0.15 0.91 0.47 92 1012.9
20260506034553 52 0 0.0 0.9 0.15 0.89 0.42 92 1013.4
20260506033059 52 127 0.0 2.6 0.10 0.84 0.37 92 1013.5
20260506031603 52 0 0.0 0.9 0.06 0.80 0.33 91 1013.5
20260506030115 52 164 0.0 0.9 0.04 0.78 0.31 91 1013.6
20260506024556 52 164 0.0 1.7 0.03 0.76 0.26 91 1013.6
20260506023052 52 0 0.0 1.7 0.07 0.76 0.26 91 1013.7
20260506021553 53 172 0.0 3.5 0.07 0.76 0.26 91 1013.7
20260506020053 53 0 0.0 3.5 0.09 0.76 0.26 91 1014.0
20260506014602 53 192 0.0 4.3 0.09 0.73 0.23 91 1014.1
20260506013058 53 186 0.9 3.5 0.07 0.69 0.19 90 1013.9
20260506011559 54 0 0.0 3.5 0.07 0.68 0.18 91 1014.0
20260506010058 54 344 0.0 2.6 0.06 0.66 0.16 90 1014.3
20260506004625 54 0 0.0 2.6 0.06 0.63 0.14 90 1014.4
20260506003058 54 18 0.9 1.7 0.05 0.62 0.12 90 1014.6
20260506001600 54 0 0.0 3.5 0.04 0.61 0.11 90 1014.6
20260506000100 54 355 1.7 4.3 0.05 0.59 0.10 90 1014.2
20260505234614 54 0 0.0 1.7 0.05 0.57 0.07 89 1014.7
20260505233051 54 348 1.7 3.5 0.07 0.56 0.07 88 1014.7
20260505231554 54 0 0.0 0.9 0.07 0.56 0.07 88 1015.1
20260505230053 54 360 0.9 3.5 0.04 0.54 0.04 87 1015.0
20260505224553 55 326 0.9 3.5 0.02 0.51 0.02 85 1015.1
20260505223103 55 112 0.0 2.6 0.00 0.49 0.00 85 1015.4
20260505221606 55 338 0.9 3.5 0.00 0.49 0.00 83 1015.2
20260505220130 55 0 0.0 2.6 0.00 0.49 0.00 81 1015.7
20260505214604 55 0 0.9 2.6 0.00 0.49 0.49 79 1015.7
20260505213051 55 0 0.0 4.3 0.00 0.49 0.49 79 1015.7
20260505211611 55 325 2.6 4.3 0.00 0.49 0.49 77 1015.7
20260505210052 56 0 0.0 1.7 0.00 0.49 0.49 74 1016.0
20260505204558 57 0 0.0 2.6 0.00 0.49 0.49 71 1015.8
20260505203054 57 0 0.0 0.9 0.00 0.49 0.49 70 1015.7
20260505201602 57 0 0.0 0.9 0.00 0.49 0.49 70 1015.8
20260505200101 58 0 0.0 1.7 0.00 0.49 0.49 69 1015.7
20260505194602 58 306 0.9 5.2 0.00 0.49 0.49 69 1015.4
20260505193052 58 5 0.0 5.2 0.00 0.49 0.49 71 1015.5
20260505191554 58 0 0.9 3.5 0.00 0.49 0.49 70 1015.3
20260505190100 58 0 0.0 3.5 0.00 0.49 0.49 69 1015.2
20260505184550 58 0 0.0 5.2 0.00 0.49 0.49 68 1015.2
20260505183055 58 0 0.0 2.6 0.00 0.49 0.49 67 1015.2
20260505181554 59 0 0.9 3.5 0.00 0.49 0.49 67 1015.1
20260505174552 61 0 0.0 5.2 0.00 0.49 0.49 64 1015.0
20260505173053 62 0 0.0 1.7 0.00 0.49 0.49 62 1014.9
20260505171555 63 0 0.0 3.5 0.00 0.49 0.49 61 1015.0
20260505170053 63 0 0.9 3.5 0.00 0.49 0.49 60 1015.1
20260505164600 64 215 0.9 10.4 0.00 0.49 0.49 59 1014.9
20260505163053 65 128 1.7 6.1 0.00 0.49 0.49 56 1014.9
20260505161558 66 153 2.6 7.0 0.00 0.49 0.49 54 1014.8
20260505153054 67 186 3.5 10.4 0.00 0.49 0.49 54 1014.8
20260505151550 68 58 3.5 13.9 0.00 0.49 0.49 52 1014.6
20260505124600 66 130 4.3 12.2 0.00 0.49 0.49 65 1015.0
20260505123050 66 180 0.9 4.3 0.00 0.49 0.49 72 1015.1
20260505121553 65 0 1.7 6.1 0.00 0.49 0.49 78 1015.5
20260505120053 63 0 0.9 5.2 0.00 0.49 0.49 78 1015.5
20260505114557 62 0 1.7 5.2 0.00 0.49 0.49 82 1015.7
20260505113055 61 148 2.6 6.1 0.00 0.49 0.49 85 1015.7
20260505111554 61 0 0.9 3.5 0.00 0.49 0.49 89 1015.5
20260505101550 56 0 0.0 1.7 0.06 0.48 0.48 91 1015.9
20260505100050 55 0 0.0 1.7 0.11 0.48 0.48 91 1016.1
20260505094553 54 355 1.7 3.5 0.13 0.48 0.48 91 1015.8
20260505093051 54 0 0.0 2.6 0.11 0.45 0.45 92 1015.8
20260505091605 54 0 0.0 1.7 0.09 0.42 0.42 91 1016.1
20260505090052 53 0 0.0 2.6 0.06 0.37 0.37 91 1015.8
20260505084552 53 0 0.0 2.6 0.07 0.34 0.34 91 1015.7
20260505083053 53 346 0.9 7.0 0.07 0.33 0.33 91 1015.6
20260505081552 53 0 0.9 3.5 0.06 0.33 0.33 91 1015.8